Regional Weather Roundup
Issued by NWS

Home | Current Version | Previous Version | Text Only | Print | Product List | Glossary On
Versions: 1 2 3 4 5 6 7 8 9 10 11 12 13 14 15 16 17 18 19 20 21 22 23 24 25 26 27 28 29 30 31 32 33 34 35 36 37 38 39 40 41 42 43 44 45 46 47 48 49
000
ASUS45 KSLC 020110
RWRUT

UTAH REGIONAL WEATHER ROUNDUP
NATIONAL WEATHER SERVICE SALT LAKE CITY UT
700 PM MDT WED JUL 01 2015

UTZ001>011-023>025-020200-

NORTHERN UTAH

CITY           SKY/WX    TMP DP  RH WIND       PRES   REMARKS
BRIGHAM CITY   MOSUNNY   95  39  14 W3        29.98F HX  91
HILL AFB       MOSUNNY   92  52  25 W7        30.03F
LOGAN          SUNNY     90  46  21 N12       29.99F
OGDEN          MOSUNNY   93  50  23 SW10      29.99F HX  90
PROVO AIRPORT  PTSUNNY   93  54  26 NW12G17     N/A  HX  91
SALT LAKE CITY PTSUNNY   96  50  20 NW10      29.97F HX  93
VERNAL         PTSUNNY   90  46  21 NW5       30.03F
WENDOVER       MOSUNNY   97  43  15 SE5       29.99S HX  92
HEBER CITY     PTSUNNY   90  45  20 N12       30.09F
WEST JORDAN    SUNNY     93  46  20 NW6       30.02F

$$

UTZ012>022-026-027-020200-

SOUTHERN/CENTRAL UTAH

CITY           SKY/WX    TMP DP  RH WIND       PRES   REMARKS
BLANDING       CLOUDY    90  48  23 CALM      30.10S
BRYCE CANYON   TSTM      70  52  52 SE7       30.28R
CEDAR CITY     CLOUDY    89  45  21 NE5       30.05F
DELTA          PTSUNNY   96  42  15 NE12      29.98S HX  92
HANKSVILLE     MOSUNNY  100  41  13 N5        29.91F HX  96
MILFORD        CLOUDY    96  44  16 N10       29.99F HX  92
MOAB/CYNLANDS  SUNNY     99  44  15 E7        29.91F HX  95
PRICE          PTSUNNY   86  51  29 NE10      30.09
ST GEORGE      MOCLDY   102  54  19 W18       29.82R HX 100
KANAB          CLOUDY    91  46  21 NW7       30.02F

$$

REGIONAL REPORTS     COLORADO/ARIZONA

CITY           SKY/WX    TMP DP  RH WIND       PRES   REMARKS
CRAIG, CO      PTSUNNY   84  49  29 W6        30.13F
GRAND JUNCTION PTSUNNY   88  52  29 W10       29.97S
RIFLE          PTSUNNY   91  48  22 NW5       30.03F
MONTROSE       MOSUNNY   93  45  19 NW6       30.06F
CORTEZ         SUNNY     91  46  21 E6        30.04F
PAGE, AZ       PTSUNNY  102  40  12 E5        29.88S HX  97
GRAND CANYON   CLOUDY    80  52  37 SW6       30.17F
KINGMAN        PTSUNNY   90  54  29 S21G26    29.97S
FLAGSTAFF      CLOUDY    78  56  46 SW8       30.22F

$$

REGIONAL REPORTS    NEVADA/IDAHO/WYOMING

CITY           SKY/WX    TMP DP  RH WIND       PRES   REMARKS
LAS VEGAS, NV  PTSUNNY  103  54  19 SW16G22   29.74F HX 101
ELY            CLOUDY    80  49  33 SE20G25   30.15R
ELKO           PTSUNNY   94  45  18 N14       30.06F HX  90
POCATELLO, ID  SUNNY     94  46  19 SW12      30.00F HX  90
BURLEY         MOSUNNY   86  54  33 SW12      29.97F
EVANSTON, WY   MOSUNNY   84  40  21 NW16      30.23F
ROCK SPRINGS   SUNNY     86  38  18 W20G25    30.14F
KEMMERER       SUNNY     81  37  21 NW13G23   30.24F

$$



USA.gov is the U.S. government's official web portal to all federal, state and local government web resources and services.